Regional Weather Roundup
Issued by NWS

Home | Current Version | Previous Version | Text Only | Print | Product List | Glossary Off
Versions: 1 2 3 4 5 6 7 8 9 10 11 12 13 14 15 16 17 18 19 20 21 22 23 24 25 26 27 28 29 30 31 32 33 34 35 36 37 38 39 40 41 42 43 44 45 46 47 48 49 50

000
ASUS43 KIND 301159
RWRIN

WEATHER ROUNDUP FOR INDIANA
NATIONAL WEATHER SERVICE INDIANAPOLIS IN
800 AM EDT SUN AUG 30 2015

NOTE: "FAIR" INDICATES FEW OR NO CLOUDS BELOW 12,000 FEET WITH NO
SIGNIFICANT WEATHER AND/OR OBSTRUCTIONS TO VISIBILITY.

* - STATION DOES NOT REPORT WEATHER SUCH AS PRECIPITATION OR FOG.

+ - STATION NOT QUALITY CONTROLLED BY THE NATIONAL WEATHER SERVICE.
    USE DATA WITH CAUTION...ESPECIALLY DEWPOINT AND RELATIVE
    HUMIDITY OBSERVATIONS.

INZ001>003-010>013-019-020-301300-
NORTHWEST INDIANA

CITY           SKY/WX    TMP DP  RH WIND       PRES   REMARKS
MONTICELLO +   MOCLDY    67  67 100 S5        30.05R FOG
6HR MIN TEMP:  65; 6HR MAX TEMP:  68;

RENSSELAER +   CLOUDY    66  66 100 CALM      30.06R FOG

$$

LMZ046-743>745-301300-
SOUTHERN LAKE MICHIGAN

STATION/POSITION TIME  TEMP    WIND        PRES    WAVE
                       AIR SEA DIR/SP/G            HT
                 (UTC) (F)     (DEG/KT/KT) (MB)    (FT)
BURNS HARBOR     1100   67     340/  7/  8 1017.9R
MICHIGAN CITY    1100   68     330/  6/  6   N/A
5NW MICH CITY    1100   68 70  330/  8/ 10   N/A     1

$$

INZ004-005-014>016-021>024-301300-
NORTH CENTRAL INDIANA

CITY           SKY/WX    TMP DP  RH WIND       PRES   REMARKS
ELKHART        FOG       66  66 100 CALM      30.06  VSB 1/4
GOSHEN         CLOUDY    68  65  90 CALM      30.07R FOG
6HR MIN TEMP:  66; 6HR MAX TEMP:  68;

PERU/GRISSOM   CLEAR     66  64  94 S2        30.06R
SOUTH BEND     FOG       67  67 100 NW3       30.06R VSB<1/4
6HR MIN TEMP:  66; 6HR MAX TEMP:  68;


$$

INZ006>009-017-018-025>027-301300-
NORTHEAST INDIANA

CITY           SKY/WX    TMP DP  RH WIND       PRES   REMARKS
ANGOLA *+      CLOUDY    66  59  77 CALM      30.07R
FORT WAYNE     MOCLDY    66  64  93 SW3       30.07R FOG
6HR MIN TEMP:  64; 6HR MAX TEMP:  70; 6HR PCP: TRACE;


$$

INZ028-029-035-036-043>045-051>053-301300-
WEST CENTRAL INDIANA

CITY           SKY/WX    TMP DP  RH WIND       PRES   REMARKS
CRAWFORDSVL +  FOG       60  60 100 CALM      30.07R VSB 3/4
6HR MIN TEMP:  57; 6HR MAX TEMP:  64;

GREENCASTLE +  PTCLDY    64  61  88 CALM      30.08R FOG
LAFAYETTE      MOCLDY    65  65 100 CALM      30.06R FOG
6HR MIN TEMP:  61; 6HR MAX TEMP:  69;

TERRE HAUTE    PTCLDY    62  61  96 CALM      30.06R FOG
6HR MIN TEMP:  60; 6HR MAX TEMP:  69;


$$

INZ030>032-037>040-046>048-054>057-064-065-301300-
CENTRAL INDIANA

CITY           SKY/WX    TMP DP  RH WIND       PRES   REMARKS
GREENWOOD *+   MOCLDY    70  66  88 CALM      30.08
INDIANAPOLIS   MOCLDY    70  67  90 S3        30.06R FOG
6HR MIN TEMP:  69; 6HR MAX TEMP:  73;

-EAGLE CREEK   PTCLDY    67  67 100 CALM      30.07R FOG
6HR MIN TEMP:  67; 6HR MAX TEMP:  73;

KOKOMO *+      CLEAR     64  48  55 CALM      30.07R
6HR MIN TEMP:  63; 6HR MAX TEMP:  68;

MT COMFORT *+    N/A     68 N/A N/A CALM      30.09R
SHELBYVILLE    MOCLDY    72  68  87 S3        30.08R
6HR MIN TEMP:  71; 6HR MAX TEMP:  73;


$$

INZ033-034-041-042-049-050-058-059-301300-
EAST CENTRAL INDIANA

CITY           SKY/WX    TMP DP  RH WIND       PRES   REMARKS
MUNCIE         MOCLDY    68  67  96 S7        30.08R
6HR MIN TEMP:  66; 6HR MAX TEMP:  70;


$$

INZ060-061-067>069-081>083-085>088-301300-
SOUTHWEST INDIANA

CITY           SKY/WX    TMP DP  RH WIND       PRES   REMARKS
EVANSVILLE     MOCLDY    73  70  90 S5        30.07R FOG
6HR MIN TEMP:  71; 6HR MAX TEMP:  73;

HUNTINGBURG *+ CLOUDY    70  64  83 S6        30.09R
6HR MIN TEMP:  68; 6HR MAX TEMP:  72;


$$

INZ062-063-066-070>080-084-089>092-301300-
SOUTH CENTRAL AND SOUTHEAST INDIANA

CITY           SKY/WX    TMP DP  RH WIND       PRES   REMARKS
BLOOMINGTON    MOCLDY    70  68  93 SE3       30.08R FOG
6HR MIN TEMP:  68; 6HR MAX TEMP:  72;

MADISON *+     PTCLDY    66  64  94 S3        30.12R
SEYMOUR +      PTCLDY    66  66 100 CALM      30.09R

$$



USA.gov is the U.S. government's official web portal to all federal, state and local government web resources and services.